Location: Biltmore Gardens
(41.6070°N, 83.4666°W)
Time: 15:21:46
(UTC+00:00)

Transit 2A Rocket - Visible Passes

Search period start: 23 April 2021 00:00
Search period end: 03 May 2021 00:00
Orbit: 594 x 908 km, 66.7° (Epoch: 22 April)

Date Brightness Start Highest point End Pass type
(mag) Time Alt. Az. Time Alt. Az. Time Alt. Az.
23 Apr 6.7 04:08:46 10° N 04:11:03 24° NNE 04:11:03 24° NNE visible
24 Apr 6.7 03:26:42 10° N 03:29:29 19° NE 03:29:29 19° NE visible
24 Apr 7.2 05:08:18 10° NW 05:09:22 17° NW 05:09:22 17° NW visible
25 Apr 7.0 02:45:13 10° NNE 02:47:01 12° NE 02:47:55 11° NE visible
25 Apr 6.5 04:25:38 10° NNW 04:27:49 29° NNW 04:27:49 29° NNW visible
26 Apr 6.0 03:43:11 10° NNW 03:46:18 36° NNE 03:46:18 36° NNE visible
27 Apr 6.1 03:00:57 10° N 03:04:47 26° NE 03:04:47 26° NE visible
27 Apr 6.9 04:43:06 10° NW 04:44:41 20° WNW 04:44:41 20° WNW visible
28 Apr 6.7 02:19:00 10° N 02:21:55 16° NE 02:23:20 15° ENE visible
28 Apr 5.9 04:00:16 10° NW 04:03:14 40° NW 04:03:14 40° NW visible
29 Apr 7.1 01:38:15 10° NNE 01:38:54 10° NE 01:39:33 10° NE visible
29 Apr 5.0 03:17:41 10° NNW 03:21:47 61° NNE 03:21:47 61° NNE visible
30 Apr 5.5 02:35:18 10° NNW 02:39:33 37° NE 02:40:23 34° ENE visible
30 Apr 6.7 04:18:03 10° NW 04:20:17 21° W 04:20:17 21° W visible
01 May 6.3 01:53:09 10° N 01:56:45 22° NE 01:59:02 16° E visible
01 May 5.5 03:35:01 10° NW 03:38:56 45° W 03:38:56 45° W visible
02 May 6.8 01:11:23 10° N 01:13:50 14° NE 01:16:21 10° ENE visible
02 May 4.6 02:52:16 10° NNW 02:56:54 87° WSW 02:57:36 65° SSE visible
